Location: Dallas
(32.7833°N, 96.8000°W)
Time: 21:21:05
(UTC-06:00)

Envisat - Pass Details

Date: 07 December 2021
Orbit: 764 x 766 km, 98.2° (Epoch: 23 January)

Event Time Altitude Azimuth Distance (km) Brightness Sun altitude
Rises 04:25:10 0° 29° (NNE) 3,234 6.5 -35.3°
Reaches altitude 10° 04:27:59 10° 45° (NE) 2,303 5.8 -34.7°
Maximum altitude 04:31:52 22° 95° (E) 1,619 5.3 -33.9°
Drops below altitude 10° 04:35:45 10° 146° (SE) 2,292 5.9 -33.1°
Sets 04:38:32 0° 161° (SSE) 3,213 6.5 -32.5°
